MDT,Max TemperatureF,Mean TemperatureF,Min TemperatureF,Max Dew PointF,MeanDew PointF,Min DewpointF,Max Humidity, Mean Humidity, Min Humidity, Max Sea Level PressureIn, Mean Sea Level PressureIn, Min Sea Level PressureIn, Max VisibilityMiles, Mean VisibilityMiles, Min VisibilityMiles, Max Wind SpeedMPH, Mean Wind SpeedMPH, Max Gust SpeedMPH,PrecipitationIn, CloudCover, Events, WindDirDegrees
2013-6-1,63,53,43,44,41,38,86,65,43,30.13,30.09,29.97,10,10,10,18,10,23,0.00,3,,337
2013-6-2,67,53,39,45,41,36,85,64,42,30.13,30.01,29.90,10,10,10,17,11,30,0.00,1,,142
2013-6-3,54,50,46,52,46,42,93,84,74,29.88,29.79,29.69,10,8,2,32,18,41,0.23,7,Rain-Thunderstorm,116
2013-6-4,51,49,47,46,45,44,100,93,86,30.15,29.97,29.81,10,8,2,22,13,28,0.07,8,Rain,327
2013-6-5,62,54,45,47,44,40,93,70,47,30.17,30.13,30.10,10,10,10,18,10,23,0.00,7,,6
2013-6-6,69,56,42,50,45,42,93,69,45,30.10,30.06,29.99,10,8,1,8,4,,0.00,2,,163
2013-6-7,76,63,49,58,51,45,93,76,59,29.99,29.83,29.64,10,10,7,29,10,36,0.11,4,Rain-Thunderstorm,178
2013-6-8,66,61,55,57,54,48,100,84,67,29.87,29.71,29.60,10,10,5,21,13,33,0.06,6,Rain,271
2013-6-9,76,61,45,54,50,44,93,68,43,29.91,29.82,29.71,10,10,10,17,7,21,T,1,Rain,226
2013-6-10,76,66,56,57,52,47,80,58,36,29.90,29.77,29.67,10,10,10,20,8,23,T,1,Rain,39
2013-6-11,76,66,55,54,50,45,77,56,35,30.02,29.90,29.85,10,9,3,25,10,32,0.31,5,Rain-Thunderstorm,106
2013-6-12,70,63,55,55,54,52,93,75,57,30.13,30.07,29.90,10,10,4,16,7,20,0.15,5,Rain,83
2013-6-13,74,64,54,56,54,52,93,73,53,30.11,29.97,29.81,10,10,10,30,16,39,0.00,1,,141
2013-6-14,74,62,50,60,52,42,87,64,40,29.94,29.82,29.70,10,10,10,28,14,35,T,2,,264
2013-6-15,73,60,47,47,44,42,86,61,35,29.95,29.93,29.90,10,10,10,28,14,36,0.00,0,,255
2013-6-16,76,63,49,50,47,43,93,65,36,30.04,29.97,29.93,10,10,10,25,12,43,0.00,0,,281
2013-6-17,72,59,45,54,50,44,93,71,49,30.13,30.09,30.05,10,10,10,18,7,23,0.00,2,,339
2013-6-18,79,62,44,57,53,42,93,69,45,30.09,29.98,29.84,10,10,9,20,10,22,0.00,0,,140
2013-6-19,83,71,58,62,58,54,90,67,43,29.83,29.73,29.60,10,10,10,31,18,40,0.00,0,,118
2013-6-20,79,70,60,67,61,54,93,77,60,29.89,29.73,29.56,10,10,4,25,9,33,0.27,3,Rain-Thunderstorm,20
2013-6-21,68,60,52,63,57,52,100,84,67,30.01,29.93,29.86,10,5,0,31,9,33,0.27,5,Fog-Rain-Thunderstorm,6
2013-6-22,67,60,52,63,58,51,100,89,78,29.96,29.89,29.73,10,6,0,25,8,31,0.79,6,Fog-Rain-Thunderstorm,323
2013-6-23,73,62,51,54,52,49,96,69,41,29.82,29.79,29.76,10,10,10,21,12,25,0.00,3,,264
2013-6-24,82,67,52,66,60,48,87,71,54,29.79,29.68,29.60,10,10,10,18,10,25,0.00,2,,142
2013-6-25,78,68,57,65,60,54,93,72,50,29.75,29.63,29.56,10,10,5,23,9,30,0.00,0,,254
2013-6-26,81,67,53,63,56,50,93,68,42,29.96,29.83,29.75,10,10,10,23,9,28,0.00,0,,254
2013-6-27,80,67,54,58,52,48,86,61,35,30.09,30.02,29.96,10,10,10,25,11,31,0.00,0,,287
2013-6-28,82,67,52,56,52,48,89,63,36,30.14,30.11,30.09,10,10,10,21,11,25,0.00,1,,316
2013-6-29,80,66,51,57,52,47,83,63,42,30.13,30.11,30.08,10,10,10,18,9,25,0.00,1,,336
2013-6-30,79,66,52,58,55,51,93,69,45,30.20,30.16,30.12,10,10,9,14,7,18,0.00,2,,94